Location: Newark
(40.7360°N, 74.1730°W)
Time: 17:15:11
(UTC-04:00)

Amateur Radio Satellites - All Passes

Search period start: 19 April 2015 16:45
Search period end: 20 April 2015 16:45
Location: Newark, 40.7360°N, 74.1730°W

Satellite Date Start Highest point End Downlink Frequencies (MHz)
Time Altitude Azimuth
JAS-2 19 Apr 16:55:50 17:03:22 51° 263° (W) 17:10:55 435.910
STARS 19 Apr 17:08:30 17:12:07 24° 292° (WNW) 17:15:39 437.465
MOZHAYETS 4 19 Apr 17:09:15 17:13:29 36° 96° (E) 17:17:44
ISS 19 Apr 17:14:57 17:16:48 14° 350° (N) 17:18:37 145.825
HORYU 2 19 Apr 17:17:53 17:18:41 10° 273° (W) 17:19:11 437.375
AO-7 19 Apr 17:25:26 17:32:38 31° 265° (W) 17:39:39 29.400- 29.500
CUSAT 1 19 Apr 17:29:49 17:30:59 12° 84° (E) 17:32:25 437.405
Cosmos 2499 19 Apr 17:40:06 17:43:24 13° 77° (ENE) 17:47:24 435.465 / 435.565
GONETS M04 19 Apr 17:46:35 17:55:20 88° 97° (E) 18:04:12
M-CUBED/EXP-1 PRIME 19 Apr 18:00:58 18:02:12 11° 91° (E) 18:03:38 437.505
CUTE-I 19 Apr 18:02:33 18:07:43 54° 72° (ENE) 18:12:55 437.470
RS-15 19 Apr 18:09:48 18:19:40 36° 325° (NW) 18:29:40 29.354- 29.394
Cubesat XI-IV 19 Apr 18:09:56 18:15:12 64° 73° (ENE) 18:20:30 437.490
PCSat 19 Apr 18:11:41 18:16:08 26° 47° (NE) 18:20:38 145.827
CUBESAT XI-V 19 Apr 18:26:59 18:30:08 19° 91° (E) 18:33:27 437.345
PRISM 19 Apr 18:44:53 18:47:23 16° 92° (E) 18:50:01 437.425
MOZHAYETS 4 19 Apr 18:46:56 18:50:32 22° 293° (WNW) 18:54:01
AUBIESAT-1 19 Apr 18:47:42 18:51:39 33° 100° (E) 18:55:21 437.475
ISS 19 Apr 18:52:23 18:54:11 14° 10° (N) 18:56:00 145.825
HO-68 19 Apr 18:55:22 18:59:03 15° 54° (NE) 19:03:04 435.675
STRAND 1 19 Apr 19:01:58 19:05:46 21° 92° (E) 19:09:42 437.568
DANDE 19 Apr 19:04:57 19:07:43 43° 286° (WNW) 19:11:08 436.750
CUSAT 1 19 Apr 19:10:31 19:13:15 26° 291° (WNW) 19:16:34 437.405
Cosmos 2499 19 Apr 19:26:30 19:35:16 71° 94° (E) 19:44:01 435.465 / 435.565
M-CUBED/EXP-1 PRIME 19 Apr 19:33:15 19:37:42 64° 291° (WNW) 19:41:45 437.505
VERMONT LUNAR 19 Apr 19:43:55 19:46:56 30° 156° (SSE) 19:49:59 437.305
CUTE-I 19 Apr 19:44:24 19:48:12 19° 269° (W) 19:51:48 437.470
GONETS M04 19 Apr 19:47:28 19:53:38 20° 300° (WNW) 19:59:25
Cubesat XI-IV 19 Apr 19:52:32 19:55:51 16° 271° (W) 19:58:54 437.490
PCSat 19 Apr 19:54:36 19:59:51 50° 247° (WSW) 20:05:03 145.827
CUBESAT XI-V 19 Apr 20:03:28 20:07:49 41° 288° (WNW) 20:12:07 437.345
COMPASS 1 19 Apr 20:17:04 20:20:15 21° 68° (ENE) 20:23:33 437.405
PRISM 19 Apr 20:19:14 20:23:04 39° 289° (WNW) 20:26:53 437.425
AUBIESAT-1 19 Apr 20:22:48 20:26:16 22° 299° (WNW) 20:29:27 437.475
CINEMA 3 19 Apr 20:26:30 20:29:18 18° 66° (ENE) 20:32:19 145.822/145.860
CANX-2 19 Apr 20:27:39 20:31:44 45° 73° (ENE) 20:35:53 2200.000
DOVE 4 19 Apr 20:28:07 20:31:53 35° 71° (ENE) 20:35:50 437.250
ISS 19 Apr 20:28:10 20:31:15 38° 29° (NNE) 20:34:20 145.825
RS-15 19 Apr 20:29:01 20:36:42 20° 358° (N) 20:44:33 29.354- 29.394
SEEDS 19 Apr 20:30:59 20:34:54 37° 72° (ENE) 20:38:52 437.485
BRITE-PL 19 Apr 20:34:00 20:38:08 80° 256° (WSW) 20:42:20 437.365/2234.400
CUTE 1.7 + AOD 2 19 Apr 20:37:45 20:41:55 53° 74° (ENE) 20:46:09 437.475
HO-68 19 Apr 20:38:36 20:45:45 77° 72° (ENE) 20:52:59 435.675
STRAND 1 19 Apr 20:40:22 20:45:12 44° 289° (WNW) 20:50:00 437.568
PHONESAT 2.4 19 Apr 20:42:31 20:45:45 32° 156° (SSE) 20:49:00 2401.200-2431.200
GOMX 1 19 Apr 20:56:15 21:00:22 71° 259° (W) 21:04:36 467.674
AAUSAT CUBESAT 2 19 Apr 21:04:19 21:08:29 62° 75° (ENE) 21:12:40 437.432
ZACube-1 19 Apr 21:06:07 21:08:48 17° 66° (ENE) 21:11:41 437.345
CUBEBUG 2 19 Apr 21:10:24 21:14:01 28° 69° (ENE) 21:17:48 437.445
Oscar 11 19 Apr 21:20:00 21:24:06 43° 73° (ENE) 21:28:16 145.826/435.025
VERMONT LUNAR 19 Apr 21:20:53 21:24:16 80° 173° (S) 21:27:40 437.305
Cosmos 2499 19 Apr 21:22:01 21:29:18 26° 294° (WNW) 21:36:15 435.465 / 435.565
DELFI C3 19 Apr 21:23:59 21:27:41 34° 72° (ENE) 21:31:27 145.870
YUBILEINY 19 Apr 21:40:11 21:47:11 27° 65° (ENE) 21:54:23 435.215
DX 1 19 Apr 21:42:31 21:46:11 28° 69° (ENE) 21:49:55 434.975-435.025
UWE-3 19 Apr 21:50:14 21:54:26 62° 75° (ENE) 21:58:48 435.000/436.395/437.385
SO-50 19 Apr 21:51:31 21:56:16 44° 51° (NE) 22:00:58 436.795
COMPASS 1 19 Apr 21:51:58 21:55:47 32° 264° (W) 21:59:36 437.405
HUMSAT D 19 Apr 21:55:08 21:58:37 27° 69° (ENE) 22:02:14 437.325/437.525
CINEMA 3 19 Apr 22:02:15 22:06:14 40° 263° (W) 22:10:22 145.822/145.860
ISS 19 Apr 22:04:48 22:07:31 24° 226° (SW) 22:10:11 145.825
CANX-2 19 Apr 22:05:21 22:07:58 15° 270° (W) 22:10:26 2200.000
DOVE 4 19 Apr 22:06:55 22:09:53 18° 269° (W) 22:12:47 437.250
SEEDS 19 Apr 22:07:49 22:10:53 18° 269° (W) 22:13:49 437.485
CUTE 1.7 + AOD 2 19 Apr 22:16:09 22:18:15 13° 271° (W) 22:20:09 437.475
FUNcube-1 19 Apr 22:17:54 22:22:10 82° 259° (WSW) 22:26:33 145.935
PHONESAT 2.4 19 Apr 22:20:14 22:23:49 80° 173° (S) 22:27:25 2401.200-2431.200
VELOX 1 19 Apr 22:22:37 22:26:33 34° 70° (ENE) 22:30:33 145.980
HO-68 19 Apr 22:29:15 22:34:19 19° 271° (W) 22:39:03 435.675
UKube-1 19 Apr 22:34:27 22:38:46 83° 257° (WSW) 22:43:07 .
ANTELSAT 19 Apr 22:35:51 22:39:06 19° 91° (E) 22:42:28 437.575/2403.000
AISAT 19 Apr 22:37:23 22:41:38 50° 73° (ENE) 22:45:55 437.250
50 SAT 19 Apr 22:38:41 22:42:31 51° 74° (ENE) 22:46:26 437.505
ZACube-1 19 Apr 22:40:46 22:44:51 44° 262° (W) 22:49:02 437.345
AAUSAT CUBESAT 2 19 Apr 22:43:26 22:44:36 11° 272° (W) 22:45:31 437.432
RS-15 19 Apr 22:44:16 22:54:04 32° 32° (NNE) 23:04:26 29.354- 29.394
CUBEBUG 2 19 Apr 22:47:08 22:50:43 25° 267° (W) 22:54:19 437.445
CUBEBUG 1 19 Apr 22:47:59 22:51:42 29° 70° (ENE) 22:55:30 437.445
ESTCUBE 1 19 Apr 22:52:59 22:57:11 39° 71° (ENE) 23:01:24 437.505/2401.250
QB50P2 19 Apr 22:53:41 22:55:26 13° 89° (E) 22:57:25 145.880/145.840
Oscar 11 19 Apr 22:57:43 23:00:33 16° 269° (W) 23:03:14 145.826/435.025
VERMONT LUNAR 19 Apr 22:58:25 23:01:49 77° 189° (S) 23:05:11 437.305
DELFI C3 19 Apr 23:00:04 23:02:59 18° 268° (W) 23:05:46 145.870
SPROUT 19 Apr 23:01:39 23:02:40 11° 64° (ENE) 23:03:55 437.525
NANOSAT C BR1 19 Apr 23:15:22 23:18:37 21° 93° (E) 23:21:59 145.865
POPSAT HIP 1 19 Apr 23:15:26 23:18:44 22° 94° (E) 23:22:06 437.405
DX 1 19 Apr 23:18:47 23:22:25 25° 265° (W) 23:25:59 434.975-435.025
Cosmos 2491 19 Apr 23:21:59 23:30:21 56° 91° (E) 23:38:51 435.465 / 435.565
TIGRISAT 19 Apr 23:28:27 23:33:10 64° 100° (E) 23:37:49 435.000
UNISAT 6 19 Apr 23:29:38 23:34:23 68° 101° (E) 23:39:03 437.425
UWE-3 19 Apr 23:30:09 23:31:33 11° 273° (W) 23:32:41 435.000/436.395/437.385
HUMSAT D 19 Apr 23:30:52 23:34:22 25° 266° (W) 23:37:50 437.325/437.525
SO-50 19 Apr 23:32:35 23:36:36 24° 247° (WSW) 23:40:27 436.795
YUBILEINY 19 Apr 23:36:09 23:44:50 67° 267° (W) 23:53:24 435.215
POLYITAN 1 19 Apr 23:41:26 23:45:33 43° 98° (E) 23:49:41 437.675
O/OREOS (USA 219) 19 Apr 23:43:04 23:47:35 61° 109° (ESE) 23:52:07 437.305
DUCHIFAT 1 19 Apr 23:50:46 23:54:57 53° 100° (E) 23:59:09 145.980
PHONESAT 2.4 19 Apr 23:58:30 00:02:06 77° 190° (S) 00:05:39 2401.200-2431.200
VELOX 1 19 Apr 23:59:48 00:03:14 21° 267° (W) 00:06:34 145.980
QB50P1 20 Apr 00:03:48 00:08:06 78° 101° (E) 00:12:24 145.935-145.965
ANTELSAT 20 Apr 00:11:37 00:16:08 44° 288° (WNW) 00:20:35 437.575/2403.000
BUGSAT 1 20 Apr 00:15:25 00:19:31 73° 102° (ESE) 00:23:40 437.445
AISAT 20 Apr 00:16:06 00:18:36 14° 270° (W) 00:20:54 437.250
50 SAT 20 Apr 00:16:11 00:17:46 12° 271° (W) 00:19:06 437.505
CUBEBUG 1 20 Apr 00:24:32 00:28:06 24° 266° (W) 00:31:35 437.445
QB50P2 20 Apr 00:27:32 00:31:44 55° 286° (WNW) 00:35:57 145.880/145.840
TISAT 1 20 Apr 00:28:49 00:33:00 82° 78° (ENE) 00:37:13 437.305
ESTCUBE 1 20 Apr 00:30:52 00:34:14 20° 268° (W) 00:37:27 437.505/2401.250
SPROUT 20 Apr 00:33:59 00:38:15 71° 260° (W) 00:42:31 437.525
VERMONT LUNAR 20 Apr 00:36:10 00:39:07 28° 205° (SSW) 00:42:02 437.305
Cosmos 2504 20 Apr 00:38:51 00:46:03 33° 69° (ENE) 00:52:55 435.465 / 435.565
ITUPSAT 1 20 Apr 00:39:15 00:42:27 18° 65° (ENE) 00:45:47 437.325
NANOSAT C BR1 20 Apr 00:50:44 00:54:33 32° 289° (WNW) 00:58:20 145.865
POPSAT HIP 1 20 Apr 00:50:51 00:54:40 32° 289° (WNW) 00:58:28 437.405
RS-15 20 Apr 00:56:40 01:08:18 89° 60° (ENE) 01:20:26 29.354- 29.394
TIGRISAT 20 Apr 01:06:48 01:09:26 14° 296° (WNW) 01:11:51 435.000
UNISAT 6 20 Apr 01:08:12 01:10:38 14° 296° (WNW) 01:12:52 437.425
BEESAT 20 Apr 01:12:57 01:17:23 39° 70° (ENE) 01:21:51 436.000
SWISSCUBE 20 Apr 01:14:13 01:18:44 44° 71° (ENE) 01:23:18 437.505
POLYITAN 1 20 Apr 01:18:18 01:21:10 17° 294° (WNW) 01:23:54 437.675
Cosmos 2491 20 Apr 01:20:05 01:27:45 32° 292° (WNW) 01:35:15 435.465 / 435.565
O/OREOS (USA 219) 20 Apr 01:24:42 01:27:30 15° 308° (NW) 01:30:08 437.305
DUCHIFAT 1 20 Apr 01:28:03 01:30:23 14° 295° (WNW) 01:32:34 145.980
PHONESAT 2.4 20 Apr 01:37:00 01:40:08 29° 205° (SSW) 01:43:14 2401.200-2431.200
YUBILEINY 20 Apr 01:37:44 01:40:09 11° 285° (WNW) 01:41:46 435.215
QB50P1 20 Apr 01:43:00 01:43:26 10° 297° (WNW) 01:43:37 145.935-145.965
AIST 1 20 Apr 01:46:21 01:50:41 82° 97° (E) 01:55:00
ITUPSAT 1 20 Apr 02:15:20 02:20:00 50° 260° (W) 02:24:40 437.325
Oscar 19 20 Apr 02:18:01 02:23:10 60° 101° (E) 02:28:19 437.125/150
STARS 20 Apr 02:28:48 02:32:27 27° 69° (ENE) 02:36:12 437.465
Gurwin Techsat 1B 20 Apr 02:30:33 02:34:26 21° 92° (E) 02:38:28 435.225
Cosmos 2504 20 Apr 02:31:57 02:39:49 50° 270° (W) 02:47:03 435.465 / 435.565
ITAMSAT 1 20 Apr 02:38:37 02:43:01 28° 95° (E) 02:47:29 435.822/435.867
BEESAT 20 Apr 02:51:39 02:55:23 22° 267° (W) 02:59:01 436.000
SWISSCUBE 20 Apr 02:53:19 02:56:51 19° 268° (W) 03:00:13 437.505
KKS-1 20 Apr 02:53:55 02:58:20 81° 78° (ENE) 03:02:48 437.445
RS-15 20 Apr 03:10:48 03:19:38 24° 256° (WSW) 03:28:03 29.354- 29.394
HORYU 2 20 Apr 03:30:10 03:32:30 14° 90° (E) 03:35:02 437.375
AO-7 20 Apr 03:34:55 03:39:48 17° 88° (E) 03:45:13 29.400- 29.500
GONETS M04 20 Apr 03:57:26 04:05:46 44° 73° (ENE) 04:14:08
Oscar 19 20 Apr 03:58:36 04:02:05 18° 297° (WNW) 04:05:24 437.125/150
DANDE 20 Apr 03:59:53 04:04:37 20° 67° (ENE) 04:10:19 436.750
BEESAT 2 20 Apr 04:02:00 04:05:22 25° 114° (ESE) 04:08:51 435.950
CUSAT 1 20 Apr 04:02:16 04:07:57 27° 69° (ENE) 04:14:36 437.405
STARS 20 Apr 04:05:08 04:08:53 27° 265° (W) 04:12:35 437.465
JAS-2 20 Apr 04:07:43 04:13:05 27° 90° (E) 04:18:06 435.910
BEESAT 3 20 Apr 04:08:32 04:12:16 36° 116° (ESE) 04:16:05 437.485
Gurwin Techsat 1B 20 Apr 04:09:36 04:14:43 48° 289° (WNW) 04:19:47 435.225
MOZHAYETS 4 20 Apr 04:10:55 04:15:04 34° 71° (ENE) 04:19:17
ITAMSAT 1 20 Apr 04:17:53 04:22:34 34° 291° (WNW) 04:27:11 435.822/435.867
AIST 2 20 Apr 04:24:07 04:26:22 14° 110° (ESE) 04:28:49 435.215
M-CUBED/EXP-1 PRIME 20 Apr 04:47:25 04:50:40 19° 60° (ENE) 04:54:07 437.505
HORYU 2 20 Apr 05:05:08 05:09:33 53° 287° (WNW) 05:13:55 437.375
Cosmos 2499 20 Apr 05:20:04 05:26:06 24° 64° (ENE) 05:32:04 435.465 / 435.565
AO-7 20 Apr 05:25:29 05:33:51 89° 100° (E) 05:42:13 29.400- 29.500
CUBESAT XI-V 20 Apr 05:30:32 05:33:42 19° 67° (ENE) 05:37:00 437.345
AUBIESAT-1 20 Apr 05:34:20 05:38:50 46° 67° (ENE) 05:43:27 437.475
PRISM 20 Apr 05:35:55 05:37:45 13° 65° (ENE) 05:39:48 437.425
BEESAT 2 20 Apr 05:39:42 05:43:24 31° 311° (NW) 05:47:07 435.950
DANDE 20 Apr 05:41:35 05:48:24 82° 261° (W) 05:56:42 436.750
CUSAT 1 20 Apr 05:44:06 05:51:04 66° 264° (W) 05:59:11 437.405
BEESAT 3 20 Apr 05:47:04 05:50:25 23° 314° (NW) 05:53:44 437.485
MOZHAYETS 4 20 Apr 05:48:35 05:52:23 24° 267° (W) 05:56:05
JAS-2 20 Apr 05:52:07 05:58:35 48° 291° (WNW) 06:04:16 435.910
GONETS M04 20 Apr 05:54:29 06:02:36 41° 272° (W) 06:10:33
AIST 2 20 Apr 06:00:22 06:04:34 55° 305° (NW) 06:08:47 435.215
STRAND 1 20 Apr 06:17:28 06:21:53 31° 68° (ENE) 06:26:23 437.568
M-CUBED/EXP-1 PRIME 20 Apr 06:20:31 06:25:07 54° 255° (WSW) 06:29:54 437.505
CUTE-I 20 Apr 06:20:40 06:24:37 22° 92° (E) 06:28:43 437.470
Cubesat XI-IV 20 Apr 06:28:05 06:32:24 26° 94° (E) 06:36:50 437.490
CUBESAT XI-V 20 Apr 07:06:24 07:10:52 44° 262° (W) 07:15:19 437.345
PRISM 20 Apr 07:08:41 07:12:49 56° 259° (W) 07:16:56 437.425
AUBIESAT-1 20 Apr 07:10:20 07:13:51 20° 264° (W) 07:17:18 437.475
Cosmos 2499 20 Apr 07:12:13 07:20:11 67° 266° (W) 07:27:28 435.465 / 435.565
AO-7 20 Apr 07:19:44 07:25:45 22° 306° (NW) 07:31:27 29.400- 29.500
DANDE 20 Apr 07:27:13 07:31:18 15° 273° (W) 07:35:13 436.750
CUSAT 1 20 Apr 07:30:44 07:33:12 11° 276° (W) 07:35:07 437.405
STRAND 1 20 Apr 07:56:31 08:01:04 31° 264° (W) 08:05:34 437.568
CUTE-I 20 Apr 07:59:54 08:04:59 47° 289° (WNW) 08:10:02 437.470
Cubesat XI-IV 20 Apr 08:07:42 08:12:40 40° 290° (WNW) 08:17:33 437.490
HO-68 20 Apr 08:09:29 08:12:23 13° 86° (E) 08:15:49 435.675
O/OREOS (USA 219) 20 Apr 08:15:58 08:17:51 13° 50° (NE) 08:19:56 437.305
DOVE 4 20 Apr 08:28:30 08:30:18 12° 88° (E) 08:32:27 437.250
BRITE-PL 20 Apr 08:37:54 08:42:20 34° 96° (E) 08:47:08 437.365/2234.400
PCSat 20 Apr 08:54:00 08:57:57 22° 108° (ESE) 09:02:04 145.827
GOMX 1 20 Apr 08:57:22 09:01:54 35° 96° (E) 09:06:44 467.674
Cosmos 2491 20 Apr 09:33:00 09:40:08 28° 66° (ENE) 09:47:30 435.465 / 435.565
ANTELSAT 20 Apr 09:35:22 09:38:05 16° 65° (ENE) 09:41:00 437.575/2403.000
COMPASS 1 20 Apr 09:35:28 09:39:27 39° 97° (E) 09:43:24 437.405
UWE-3 20 Apr 09:41:49 09:44:15 14° 89° (E) 09:46:54 435.000/436.395/437.385
CANX-2 20 Apr 09:48:53 09:53:13 85° 287° (WNW) 09:57:29 2200.000
SEEDS 20 Apr 09:51:00 09:55:17 76° 101° (ESE) 09:59:30 437.485
O/OREOS (USA 219) 20 Apr 09:53:24 09:57:55 74° 251° (WSW) 10:02:21 437.305
HO-68 20 Apr 09:54:07 10:01:22 82° 105° (ESE) 10:08:33 435.675
CINEMA 3 20 Apr 09:56:32 10:01:17 48° 99° (E) 10:06:09 145.822/145.860
CUTE 1.7 + AOD 2 20 Apr 09:59:01 10:03:20 72° 283° (WNW) 10:07:34 437.475
DOVE 4 20 Apr 10:03:38 10:08:37 78° 284° (WNW) 10:13:50 437.250
FUNcube-1 20 Apr 10:07:17 10:10:41 21° 92° (E) 10:14:12 145.935
NANOSAT C BR1 20 Apr 10:08:37 10:11:11 16° 66° (ENE) 10:13:54 145.865
POPSAT HIP 1 20 Apr 10:08:54 10:11:30 17° 66° (ENE) 10:14:15 437.405
BRITE-PL 20 Apr 10:16:39 10:20:48 28° 290° (WNW) 10:25:08 437.365/2234.400
AAUSAT CUBESAT 2 20 Apr 10:23:12 10:27:23 66° 285° (WNW) 10:31:31 437.432
UKube-1 20 Apr 10:23:28 10:26:11 17° 92° (E) 10:29:03 .
TIGRISAT 20 Apr 10:26:54 10:31:12 53° 73° (ENE) 10:35:40 435.000
UNISAT 6 20 Apr 10:28:17 10:32:38 57° 74° (ENE) 10:37:09 437.425
ZACube-1 20 Apr 10:29:30 10:33:45 36° 97° (E) 10:38:00 437.345
POLYITAN 1 20 Apr 10:34:29 10:38:11 31° 71° (ENE) 10:41:59 437.675
GOMX 1 20 Apr 10:35:44 10:39:56 28° 290° (WNW) 10:44:15 467.674
PCSat 20 Apr 10:35:45 10:41:02 52° 304° (WNW) 10:46:21 145.827
CUBEBUG 2 20 Apr 10:37:15 10:42:00 68° 101° (E) 10:46:45 437.445
DELFI C3 20 Apr 10:38:28 10:42:30 62° 100° (E) 10:46:29 145.870
YUBILEINY 20 Apr 10:41:15 10:48:27 31° 85° (E) 10:55:55 435.215
DUCHIFAT 1 20 Apr 10:43:04 10:46:55 37° 72° (ENE) 10:50:50 145.980
Oscar 11 20 Apr 10:43:24 10:47:47 87° 287° (WNW) 10:52:07 145.826/435.025
QB50P1 20 Apr 10:56:14 11:00:19 55° 74° (ENE) 11:04:28 145.935-145.965
BUGSAT 1 20 Apr 11:05:20 11:09:11 46° 73° (ENE) 11:13:04 437.445
DX 1 20 Apr 11:06:29 11:10:45 53° 100° (E) 11:15:02 434.975-435.025
ANTELSAT 20 Apr 11:10:09 11:14:29 50° 261° (W) 11:18:57 437.575/2403.000
COMPASS 1 20 Apr 11:11:59 11:14:52 18° 293° (WNW) 11:17:37 437.405
HUMSAT D 20 Apr 11:14:23 11:18:39 53° 100° (E) 11:22:54 437.325/437.525
UWE-3 20 Apr 11:16:36 11:21:12 58° 286° (WNW) 11:25:48 435.000/436.395/437.385
QB50P2 20 Apr 11:19:56 11:24:09 77° 258° (WSW) 11:28:24 145.880/145.840
Cosmos 2491 20 Apr 11:29:03 11:37:48 66° 267° (W) 11:46:28 435.465 / 435.565
SEEDS 20 Apr 11:29:59 11:30:32 10° 297° (WNW) 11:30:49 437.485
CINEMA 3 20 Apr 11:34:35 11:38:11 20° 293° (WNW) 11:41:42 145.822/145.860
NANOSAT C BR1 20 Apr 11:42:44 11:46:44 42° 261° (W) 11:50:45 145.865
FUNcube-1 20 Apr 11:42:53 11:47:10 38° 288° (WNW) 11:51:24 145.935
POPSAT HIP 1 20 Apr 11:43:06 11:47:06 42° 262° (W) 11:51:07 437.405
HO-68 20 Apr 11:43:15 11:48:22 21° 302° (WNW) 11:53:12 435.675
VELOX 1 20 Apr 11:49:17 11:53:43 72° 102° (ESE) 11:58:08 145.980
50 SAT 20 Apr 11:50:49 11:54:55 87° 101° (E) 11:58:58 437.505
AIST 1 20 Apr 11:54:40 11:57:41 19° 71° (ENE) 12:00:48
UKube-1 20 Apr 11:58:28 12:02:34 42° 288° (WNW) 12:06:39 .
Oscar 19 20 Apr 11:59:51 12:01:03 11° 60° (ENE) 12:02:32 437.125/150
AISAT 20 Apr 12:04:40 12:09:07 75° 285° (WNW) 12:13:34 437.250
TIGRISAT 20 Apr 12:05:53 12:08:23 14° 271° (W) 12:10:42 435.000
ZACube-1 20 Apr 12:06:17 12:09:55 23° 292° (WNW) 12:13:27 437.345
UNISAT 6 20 Apr 12:07:36 12:09:54 13° 272° (W) 12:12:00 437.425
SO-50 20 Apr 12:08:03 12:10:17 14° 109° (ESE) 12:12:48 436.795
POLYITAN 1 20 Apr 12:10:57 12:14:12 21° 267° (W) 12:17:23 437.675
CUBEBUG 1 20 Apr 12:12:37 12:16:56 62° 100° (E) 12:21:16 437.445
TISAT 1 20 Apr 12:15:25 12:17:21 13° 90° (E) 12:19:30 437.305
CUBEBUG 2 20 Apr 12:15:40 12:18:12 14° 296° (WNW) 12:20:31 437.445
DELFI C3 20 Apr 12:15:54 12:17:11 11° 295° (WNW) 12:18:16 145.870
DUCHIFAT 1 20 Apr 12:20:03 12:22:56 17° 268° (W) 12:25:42 145.980
BEESAT 2 20 Apr 12:21:38 12:24:28 18° 43° (NE) 12:27:21 435.950
SPROUT 20 Apr 12:21:42 12:24:53 20° 93° (E) 12:28:10 437.525
ESTCUBE 1 20 Apr 12:22:19 12:26:51 89° 103° (ESE) 12:31:19 437.505/2401.250
PCSat 20 Apr 12:24:46 12:25:51 10° 326° (NW) 12:26:42 145.827
BEESAT 3 20 Apr 12:27:49 12:31:06 23° 46° (NE) 12:34:24 437.485
QB50P1 20 Apr 12:34:51 12:36:38 12° 271° (W) 12:38:11 145.935-145.965
YUBILEINY 20 Apr 12:36:11 12:44:52 58° 283° (WNW) 12:53:32 435.215
BUGSAT 1 20 Apr 12:43:03 12:45:00 13° 270° (W) 12:46:46 437.445
DX 1 20 Apr 12:44:09 12:46:37 15° 295° (WNW) 12:48:55 434.975-435.025
AIST 2 20 Apr 12:45:34 12:47:21 12° 38° (NE) 12:49:15 435.215
HUMSAT D 20 Apr 12:51:32 12:54:01 15° 295° (WNW) 12:56:20 437.325/437.525
ISS 20 Apr 13:08:29 13:09:43 12° 130° (SE) 13:11:04 145.825
Cosmos 2504 20 Apr 13:16:10 13:23:15 29° 84° (E) 13:30:39 435.465 / 435.565
SWISSCUBE 20 Apr 13:17:23 13:18:33 11° 87° (E) 13:20:03 437.505
VELOX 1 20 Apr 13:28:09 13:29:46 12° 297° (WNW) 13:31:09 145.980
Cosmos 2491 20 Apr 13:30:48 13:33:09 11° 285° (WNW) 13:34:43 435.465 / 435.565
AIST 1 20 Apr 13:31:38 13:35:28 33° 268° (W) 13:39:16
Oscar 19 20 Apr 13:34:32 13:39:40 84° 77° (ENE) 13:44:53 437.125/150
SO-50 20 Apr 13:45:40 13:50:18 67° 305° (NW) 13:55:06 436.795
TISAT 1 20 Apr 13:49:23 13:53:31 51° 286° (WNW) 13:57:38 437.305
CUBEBUG 1 20 Apr 13:50:50 13:52:51 13° 296° (WNW) 13:54:40 437.445
Gurwin Techsat 1B 20 Apr 13:51:10 13:55:49 33° 68° (ENE) 14:00:34 435.225
ITAMSAT 1 20 Apr 13:56:12 14:01:03 42° 70° (ENE) 14:05:57 435.822/435.867
SPROUT 20 Apr 13:57:09 14:01:05 34° 289° (WNW) 14:04:58 437.525
BEESAT 2 20 Apr 13:58:53 14:02:54 51° 242° (WSW) 14:06:50 435.950
BEESAT 3 20 Apr 14:05:28 14:09:14 35° 244° (WSW) 14:12:55 437.485
ITUPSAT 1 20 Apr 14:16:13 14:20:44 42° 98° (E) 14:25:15 437.325
JAS-2 20 Apr 14:20:01 14:24:24 17° 57° (ENE) 14:29:05 435.910
AIST 2 20 Apr 14:22:23 14:26:39 88° 58° (ENE) 14:30:49 435.215
HORYU 2 20 Apr 14:28:52 14:31:06 14° 64° (ENE) 14:33:32 437.375
AO-7 20 Apr 14:33:37 14:40:04 27° 57° (ENE) 14:46:44 29.400- 29.500
YUBILEINY 20 Apr 14:42:07 14:44:14 11° 308° (NW) 14:45:37 435.215
ISS 20 Apr 14:42:27 14:45:43 74° 326° (NNW) 14:48:59 145.825
KKS-1 20 Apr 14:46:35 14:49:17 16° 91° (E) 14:52:10 437.445
BEESAT 20 Apr 14:50:47 14:55:35 83° 283° (WNW) 15:00:20 436.000
SWISSCUBE 20 Apr 14:52:17 14:57:04 74° 285° (WNW) 15:01:48 437.505
Cosmos 2504 20 Apr 15:07:25 15:16:10 63° 282° (WNW) 15:24:57 435.465 / 435.565
Oscar 19 20 Apr 15:18:21 15:19:49 11° 274° (W) 15:20:55 437.125/150
RS-15 20 Apr 15:19:39 15:30:11 60° 114° (ESE) 15:41:00 29.354- 29.394
SO-50 20 Apr 15:29:46 15:31:52 12° 326° (NW) 15:33:50 436.795
Gurwin Techsat 1B 20 Apr 15:31:06 15:35:49 31° 265° (W) 15:40:29 435.225
ITAMSAT 1 20 Apr 15:36:38 15:40:46 23° 267° (W) 15:44:47 435.822/435.867
STARS 20 Apr 15:54:19 15:58:42 55° 101° (E) 16:03:04 437.465
ITUPSAT 1 20 Apr 15:54:47 15:58:23 21° 294° (WNW) 16:01:50 437.325
JAS-2 20 Apr 16:00:35 16:08:21 75° 74° (ENE) 16:16:09 435.910
HORYU 2 20 Apr 16:02:53 16:07:19 60° 259° (W) 16:11:47 437.375
ISS 20 Apr 16:20:14 16:22:32 17° 343° (NNW) 16:24:49 145.825
KKS-1 20 Apr 16:21:55 16:26:14 46° 288° (WNW) 16:30:31 437.445
AO-7 20 Apr 16:23:58 16:32:14 72° 255° (WSW) 16:40:32 29.400- 29.500
